Regional Weather Roundup
Issued by NWS Columbia, SC

Home | Current Version | Previous Version | Text Only | Print | Product List | Glossary On
Versions: 1 2 3 4 5 6 7 8 9 10 11 12 13 14 15 16 17 18 19 20 21 22 23 24 25 26 27 28
000
ASUS42 KCAE 251210
RWRCAE
REGIONAL WEATHER ROUNDUP
NATIONAL WEATHER SERVICE COLUMBIA SC
800 AM EDT SAT MAR 25 2017

NOTE: "FAIR" INDICATES FEW OR NO CLOUDS BELOW 12,000 FEET WITH NO
SIGNIFICANT WEATHER AND/OR OBSTRUCTIONS TO VISIBILITY.

NOT ALL STATIONS ARE QUALITY CONTROLLED BY THE NATIONAL
WEATHER SERVICE. USE DATA WITH CAUTION...ESPECIALLY
DEWPOINT OBSERVATIONS.

SCZ001>056-GAZ040-063>065-077-251300-
...UPSTATE SOUTH CAROLINA...

CITY           SKY/WX    TMP DP  RH WIND       PRES   REMARKS
ANDERSON       CLOUDY    52  49  89 CALM      30.33R
6HR MIN TEMP:  51; 6HR MAX TEMP:  58;

LIBERTY        CLOUDY    48  47  94 CALM      30.31S
6HR MIN TEMP:  47; 6HR MAX TEMP:  57;

SPARTANBURG    PTCLDY    48  45  87 CALM      30.32R
CLEMSON        CLOUDY    57  49  74 CALM      30.33R
6HR MIN TEMP:  55; 6HR MAX TEMP:  60;

GREENVILLE     CLOUDY    56  49  77 CALM      30.33R
6HR MIN TEMP:  55; 6HR MAX TEMP:  61;

GREENWOOD      PTCLDY    50  47  89 CALM      30.34R
6HR MIN TEMP:  50; 6HR MAX TEMP:  58;

GREER          PTCLDY    52  47  83 CALM      30.32R
6HR MIN TEMP:  51; 6HR MAX TEMP:  56;

ROCK HILL      CLOUDY    49  47  93 SW3       30.33R
6HR MIN TEMP:  48; 6HR MAX TEMP:  58;

CHESTER        MOSUNNY   50  48  93 CALM      30.34R
LAURENS        MOSUNNY   48  46  93 NW5       30.32R


...CENTRAL SOUTH CAROLINA...

CITY           SKY/WX    TMP DP  RH WIND       PRES   REMARKS
COLUMBIA APT   CLOUDY    53  49  86 CALM      30.33R
6HR MIN TEMP:  51; 6HR MAX TEMP:  61;

COLUMBIA OWENS MOCLDY    54  51  90 CALM      30.34R
6HR MIN TEMP:  53; 6HR MAX TEMP:  58;

MCENTIRE ANGB  MOCLDY    51  50  99 CALM      30.34R
6HR MIN TEMP:  50; 6HR MAX TEMP:  55;

ORANGEBURG     CLOUDY    53  51  93 CALM      30.33R
6HR MIN TEMP:  52; 6HR MAX TEMP:  59;

SUMTER SHAW    MOCLDY    51  48  90 CALM      30.32R
6HR MIN TEMP:  50; 6HR MAX TEMP:  57;

NEWBERRY       MOSUNNY   52  50  93 CALM      30.35S FOG
AIKEN          FAIR      48  46  93 CALM      30.36R
BARNWELL       PTSUNNY   54  52  94 CALM      30.33R
MANNING        FAIR      52  52 100 CALM      30.34R
CAMDEN         FAIR      50  48  93 CALM      30.34R
LANCASTER      MOSUNNY   50  50 100 CALM      30.34R
WINNSBORO      PTSUNNY   54  52  94 S5        30.33R


...EASTERN AND COASTAL SOUTH CAROLINA...

CITY           SKY/WX    TMP DP  RH WIND       PRES   REMARKS
MYRTLE BEACH   MOCLDY    61  57  88 S6        30.34R
N MYRTLE BCH   CLOUDY    59  58  96 CALM      30.33R
6HR MIN TEMP:  55; 6HR MAX TEMP:  61;

CONWAY         CLOUDY    52  50  93 CALM      30.34R
MARION         PTSUNNY   50  48  93 CALM      30.35R
HARTSVILLE     FAIR      52  50  93 CALM      30.34R
FLORENCE       PTCLDY    52  51  97 CALM      30.34R
6HR MIN TEMP:  50; 6HR MAX TEMP:  55;

DARLINGTON     MOCLDY    50  49  96 CALM      30.34R FOG
6HR MIN TEMP:  50; 6HR MAX TEMP:  56;

CHARLESTON APT MOCLDY    58  53  84 CALM      30.32R
6HR MIN TEMP:  54; 6HR MAX TEMP:  61;

MOUNT PLEASANT CLOUDY    61  55  82 CALM      30.33R
WALTERBORO     CLOUDY    54  52  94 CALM      30.34R
BEAUFORT       CLOUDY    58  58 100 CALM      30.32R
6HR MIN TEMP:  54; 6HR MAX TEMP:  61;



...EASTERN GEORGIA...

CITY           SKY/WX    TMP DP  RH WIND       PRES   REMARKS
AUGUSTA BUSH F CLOUDY    52  50  93 CALM      30.32R
6HR MIN TEMP:  50; 6HR MAX TEMP:  60;

AUGUSTA DANIEL CLOUDY    57  52  83 CALM      30.33R
6HR MIN TEMP:  57; 6HR MAX TEMP:  61;

THOMSON        MOCLDY    50  48  93 S3        30.36S
6HR MIN TEMP:  50; 6HR MAX TEMP:  60;

WASHINGTON     FAIR      55  55 100 CALM      30.31R
CLAXTON        FAIR     N/A N/A N/A CALM      30.30R
SYLVANIA       MOSUNNY  N/A N/A N/A CALM      30.32R
STATESBORO     PTCLDY    52  50  94 CALM      30.31R
6HR MIN TEMP:  50; 6HR MAX TEMP:  54;

SAVANNAH       CLOUDY    58  55  90 N6        30.31R
6HR MIN TEMP:  55; 6HR MAX TEMP:  61;



...SOUTHERN NORTH CAROLINA...

CITY           SKY/WX    TMP DP  RH WIND       PRES   REMARKS
CHARLOTTE      MOCLDY    54  49  83 CALM      30.34R
6HR MIN TEMP:  51; 6HR MAX TEMP:  59;

MONROE         PTCLDY    52  48  86 SW6       30.32R
6HR MIN TEMP:  51; 6HR MAX TEMP:  58;

WADESBORO      CLOUDY    49  46  90 CALM      30.34R
ROCKINGHAM     PTSUNNY   51  50  97 CALM      30.34R
RUTHERFORDTON  PTCLDY    52  49  90 CALM      30.33R
ASHEVILLE      CLOUDY    53  47  79 S8        30.32S
6HR MIN TEMP:  48; 6HR MAX TEMP:  54;


$$




USA.gov is the U.S. government's official web portal to all federal, state and local government web resources and services.